Location: Warszawa
(52.2500°N, 21.0000°E)
Time: 19:30:45
(UTC+02:00)

A-11 Canister half - Pass Details

Date: 09 February 2023
Orbit: 1526 x 1682 km, 47.3° (Epoch: 27 March)

Event Time Altitude Azimuth Distance (km) Brightness Sun altitude
Exits shadow 03:50:55 27° 192° (SSW) 2,619 9.9 -29.7°
Maximum altitude 03:55:02 39° 147° (SSE) 2,150 9.8 -29.1°
Drops below altitude 10° 04:03:24 10° 83° (E) 3,716 12.0 -27.9°
Sets 04:06:42 0° 76° (ENE) 4,714 12.9 -27.4°
